[[{"header":{"parameterUnit":"m.s-1","parameterCategory":2,"la1":30.2991,"la2":30.254,"lo1":-89.0895,"lo2":-89.0444,"dy":0.0017,"dx":0.0017,"nx":28,"ny":28,"refTime":"2024-07-18T21:00:00:Z","depth":"0","parameterNumber":2,"parameterNumberName":"U-component_of_CURRENTS"},"data":[0,0,0,0,0,0,0,0,0,0,0,0,0,0,0,0,0,0,0,0,0,0,0,0,0,0,0,0,0,0,0,0,0,0,0,0,0,0,0,0,0,0,0,0,0,0,0,0,0,0,0,0,0,0,0,0,0,0,0.3943,0.3944,0,0.4039,0.4039,0.404,0.4024,0.4023,0.4022,0.4021,0.4037,0.4039,0.4041,0,0,0,0,0,0,0,0,0,0,0,0,0,0.3757,0.376,0.3943,0.3945,0.3946,0.4039,0.4039,0.404,0.4025,0.4023,0.4022,0.402,0.4037,0.4039,0.4041,0,0,0,0,0,0,0,0,0,0,0,0,0,0.3839,0.3761,0.3943,0.3953,0.3955,0.4038,0.4039,0.4041,0.4025,0.4023,0.4021,0.402,0.4036,0.4039,0.4041,0.4092,0,0,0.4048,0.4049,0,0,0,0,0,0,0,0,0.3835,0.3846,0.395,0.3952,0.3955,0.4022,0.398,0.4055,0.4025,0.3993,0.4021,0.4019,0.4029,0.4032,0.4049,0.4093,0.4094,0.4048,0.405,0.4051,0.4051,0,0,0,0,0,0,0,0.3829,0.3842,0.3976,0.3952,0.3955,0.3957,0.3966,0.3995,0.4015,0.3996,0.3996,0.4015,0.4029,0.4046,0.4049,0.4094,0.4048,0.405,0.4052,0.4053,0.4189,0.4191,0,0,0,0,0,0,0.3829,0.3837,0.3973,0.3979,0.3895,0.3962,0.3972,0.3998,0.4017,0.402,0.4017,0.4014,0.4043,0.4046,0.4049,0.4169,0.4051,0.4053,0.4054,0.4187,0.4189,0.4192,0,0,0,0,0,0,0.3825,0.3841,0.3969,0.3913,0.393,0.3968,0.3997,0.4001,0.4023,0.4034,0.4034,0.4034,0.4042,0.4046,0.4092,0.4167,0.4054,0.4056,0.4184,0.4188,0.4191,0.4371,0,0,0,0,0,0,0.3819,0.3839,0.3857,0.3914,0.3933,0.4037,0.4,0.4005,0.4039,0.4037,0.405,0.4049,0.4041,0.4089,0.4095,0.4168,0.4058,0.4181,0.4186,0.419,0.4362,0.438,0.4395,0,0,0,0,0,0.3812,0.3849,0.3857,0.3874,0.3958,0.404,0.405,0.4066,0.4042,0.4073,0.4077,0.4049,0.4118,0.4094,0.41,0.4175,0.4179,0.4184,0.4189,0.4355,0.4377,0.4395,0,0,0,0,0,0,0.3774,0.3854,0.3863,0.392,0.3983,0.4039,0.4071,0.4078,0.4107,0.4098,0.4087,0.409,0.4157,0.4134,0.4106,0.4221,0.4141,0.4148,0.4265,0.4285,0.4301,0.4287,0.406,0,0,0,0,0,0.3778,0.3828,0.3901,0.3949,0.3983,0.4027,0.4059,0.4076,0.4113,0.4123,0.4131,0.4142,0.4185,0.4206,0.4225,0.4297,0.4321,0.4342,0.4359,0.4373,0.4363,0.4474,0.4501,0.4208,0.4208,0.4208,0,0,0.3779,0.3827,0.3856,0.3945,0.3989,0.4072,0.4041,0.4106,0.4171,0.4122,0.4195,0.4201,0.4213,0.4295,0.4323,0.4287,0.4482,0.4379,0.4392,0.4373,0.4482,0.4511,0.4537,0.4211,0.4211,0.421,0,0,0.3814,0.385,0.3908,0.3974,0.4058,0.4101,0.4125,0.4192,0.4216,0.4295,0.4279,0.4322,0.4377,0.441,0.4434,0.4548,0.4562,0.4555,0.4643,0.4753,0.4779,0.4802,0.4932,0.4964,0.457,0.457,0.457,0,0.3805,0.3896,0.3938,0.4021,0.4081,0.4122,0.4204,0.4261,0.433,0.4354,0.4334,0.4423,0.4437,0.4546,0.4592,0.4591,0.4659,0.4577,0.478,0.4802,0.4822,0.4949,0.4983,0.4579,0.4578,0.4577,0.4577,0,0.3892,0.3974,0.402,0.4141,0.4207,0.429,0.4376,0.4429,0.4455,0.4497,0.4583,0.4608,0.4651,0.4685,0.4684,0.4834,0.4842,0.4792,0.4739,0.4864,0.4989,0.5021,0.4593,0.4589,0.4587,0.4584,0,0,0.3856,0.4042,0.4058,0.4134,0.4276,0.4338,0.4455,0.4562,0.4623,0.4686,0.4769,0.4853,0.4836,0.4858,0.4867,0.4966,0.52,0.4953,0.4955,0.51,0.5488,0.5447,0.5477,0.5205,0.521,0.5214,0.5543,0,0.3913,0.4075,0.4152,0.431,0.4409,0.4483,0.4587,0.4679,0.4744,0.4837,0.4879,0.4958,0.4918,0.4952,0.5052,0.5151,0.5282,0.5117,0.5327,0.5333,0.5295,0.5511,0.5244,0.5508,0.5574,0.5579,0.5583,0,0.3977,0.4081,0.4239,0.4403,0.4446,0.4537,0.4673,0.4774,0.4908,0.495,0.5026,0.5057,0.5208,0.5146,0.5402,0.5308,0.5414,0.5488,0.5502,0.5407,0.5349,0.5379,0.5563,0.5346,0.5631,0.5627,0.5624,0,0.3947,0.4137,0.4257,0.4325,0.4518,0.4575,0.4663,0.4795,0.4883,0.5026,0.5101,0.5234,0.5336,0.5472,0.5631,0.5543,0.5929,0.5816,0.5885,0.5884,0.5662,0.5632,0.566,0.6014,0.6014,0.6013,0.6012,0,0.4002,0.4107,0.425,0.4331,0.446,0.4568,0.4697,0.4795,0.4937,0.5066,0.5151,0.5282,0.5428,0.5643,0.5738,0.5953,0.603,0.5953,0.5981,0.5721,0.5694,0.549,0.539,0.6025,0.6022,0.602,0.6018,0,0.4029,0.4116,0.4271,0.443,0.4471,0.457,0.4733,0.4821,0.495,0.5128,0.5185,0.5399,0.5652,0.5824,0.6096,0.6109,0.6119,0.6347,0.605,0.6034,0.578,0.57,0.5637,0.5484,0.644,0.6441,0.6442,0,0.4107,0.4177,0.4325,0.4392,0.448,0.4609,0.4693,0.4826,0.492,0.5201,0.5291,0.5577,0.5748,0.6141,0.6235,0.6434,0.6206,0.6291,0.603,0.5786,0.5719,0.5501,0.5358,0.5847,0.5843,0.5839,0.5837,0,0.4248,0.4261,0.4358,0.4457,0.4548,0.4651,0.4769,0.4835,0.5008,0.5137,0.535,0.5509,0.5868,0.5935,0.6203,0.6268,0.5928,0.6226,0.6041,0.5331,0.5026,0.4882,0.5638,0.5808,0.5811,0.5813,0.5814,0.5815,0.4335,0.439,0.4439,0.4523,0.4611,0.4656,0.4673,0.478,0.4885,0.5033,0.5288,0.5445,0.5624,0.5912,0.5949,0.577,0.5776,0.5547,0.551,0.5343,0.5043,0.5758,0.5896,0.5899,0.5902,0.5905,0.5907,0,0.4407,0.441,0.4501,0.4548,0.4579,0.4621,0.4687,0.4645,0.4677,0.4914,0.5049,0.5184,0.5234,0.5322,0.5271,0.508,0.4833,0.4912,0.4491,0.4416,0.5117,0.4929,0.4776,0.4776,0.4777,0.4777,0.4777,0.4777,0.4434,0.4464,0.4454,0.4469,0.4489,0.4436,0.4418,0.4369,0.4455,0.4471,0.4534,0.468,0.4821,0.4821,0.459,0.4468,0.4098,0.3932,0.396,0.437,0.4421,0.447,0.4267,0.3978,0.3977,0.3027,0.3019,0.3014]},{"header":{"parameterUnit":"m.s-1","parameterCategory":2,"la1":30.2991,"la2":30.254,"lo1":-89.0895,"lo2":-89.0444,"dy":0.0017,"dx":0.0017,"nx":28,"ny":28,"refTime":"2024-07-18T21:00:00:Z","depth":"0","parameterNumber":3,"parameterNumberName":"V-component_of_CURRENTS"},"data":[0,0,0,0,0,0,0,0,0,0,0,0,0,0,0,0,0,0,0,0,0,0,0,0,0,0,0,0,0,0,0,0,0,0,0,0,0,0,0,0,0,0,0,0,0,0,0,0,0,0,0,0,0,0,0,0,0,0,0.0042,0.0041,0,-0.004,-0.0041,-0.0042,-0.0108,-0.0108,-0.0109,-0.0109,-0.0244,-0.0247,-0.0251,0,0,0,0,0,0,0,0,0,0,0,0,0,0.0072,0.0072,0.0042,0.0041,0.004,-0.004,-0.0041,-0.0042,-0.0107,-0.0108,-0.0109,-0.0109,-0.0243,-0.0247,-0.0251,0,0,0,0,0,0,0,0,0,0,0,0,0,0.003,0.0072,0.0042,-0.0001,-0.0006,-0.0039,-0.0041,-0.0042,-0.0107,-0.0108,-0.0109,-0.011,-0.0242,-0.0247,-0.0251,-0.0264,0,0,-0.0266,-0.0268,0,0,0,0,0,0,0,0,0.0033,0.0029,0.0006,0.0002,-0.0003,-0.0063,-0.008,-0.0119,-0.0107,-0.007,-0.0109,-0.011,-0.0187,-0.0196,-0.0211,-0.027,-0.0276,-0.0266,-0.0269,-0.0271,-0.0272,0,0,0,0,0,0,0,0.0036,0.0032,0.0008,0.0005,-0.0,-0.004,-0.0046,-0.0088,-0.0125,-0.0073,-0.0078,-0.0085,-0.0191,-0.0207,-0.0215,-0.0278,-0.0266,-0.027,-0.0273,-0.0275,-0.0408,-0.0409,0,0,0,0,0,0,0.0054,0.0035,0.0011,0.0006,0.0015,-0.0039,-0.0047,-0.0044,-0.0124,-0.0136,-0.0084,-0.0087,-0.0198,-0.021,-0.022,-0.0282,-0.0271,-0.0275,-0.0278,-0.0408,-0.0409,-0.0409,0,0,0,0,0,0,0.0055,0.0053,0.0014,0.0019,0.0012,-0.0038,-0.0036,-0.0045,-0.0062,-0.0131,-0.0145,-0.009,-0.0199,-0.0214,-0.0264,-0.0286,-0.0277,-0.0281,-0.0407,-0.0408,-0.0409,-0.0378,0,0,0,0,0,0,0.0056,0.0054,0.0063,0.0021,0.0012,-0.0001,-0.0035,-0.0046,-0.0064,-0.0069,-0.0141,-0.0154,-0.0201,-0.0256,-0.0268,-0.0292,-0.0285,-0.0406,-0.0407,-0.0409,-0.0378,-0.0378,-0.0378,0,0,0,0,0,0.0058,0.0076,0.0064,0.0061,0.0027,-0.0001,-0.0009,-0.0049,-0.0063,-0.0067,-0.0121,-0.0152,-0.0274,-0.026,-0.0274,-0.03,-0.0405,-0.0407,-0.0408,-0.0378,-0.0378,-0.0378,0,0,0,0,0,0,0.0096,0.007,0.0056,0.0067,0.0037,-0.0011,-0.0014,-0.004,-0.0084,-0.0091,-0.0156,-0.0173,-0.0229,-0.0263,-0.0246,-0.0343,-0.0347,-0.0352,-0.032,-0.032,-0.032,-0.0278,-0.0289,0,0,0,0,0,0.0111,0.0118,0.0081,0.009,0.0079,0.0035,0.002,-0.0008,-0.0052,-0.0071,-0.0124,-0.0185,-0.0246,-0.0279,-0.0331,-0.0377,-0.034,-0.0405,-0.0405,-0.0404,-0.038,-0.034,-0.0332,-0.0415,-0.0415,-0.0415,0,0,0.0128,0.0116,0.012,0.0099,0.0074,0.0045,0.0024,0.0007,-0.0027,-0.0079,-0.0134,-0.0182,-0.0256,-0.0316,-0.0344,-0.0348,-0.0359,-0.0406,-0.0406,-0.0381,-0.034,-0.0332,-0.0324,-0.0416,-0.0416,-0.0416,0,0,0.0158,0.0157,0.0164,0.0137,0.0105,0.0069,0.0067,0.0018,-0.0009,-0.006,-0.0115,-0.0165,-0.0255,-0.0312,-0.0354,-0.038,-0.0356,-0.0407,-0.0379,-0.034,-0.0332,-0.0324,-0.0243,-0.0228,-0.0411,-0.0411,-0.0411,0,0.018,0.0181,0.0161,0.0148,0.0129,0.008,0.0068,0.0024,-0.0039,-0.0041,-0.0075,-0.0178,-0.0255,-0.0313,-0.0343,-0.0379,-0.0328,-0.0373,-0.0335,-0.0327,-0.0319,-0.0238,-0.0222,-0.041,-0.041,-0.041,-0.041,0,0.0198,0.0192,0.0195,0.0156,0.0134,0.012,0.0058,0.0037,-0.0001,-0.0034,-0.0075,-0.0165,-0.0206,-0.0268,-0.0328,-0.0329,-0.0297,-0.0332,-0.0324,-0.0308,-0.0225,-0.0209,-0.0408,-0.0409,-0.0409,-0.0409,0,0,0.0256,0.0219,0.0216,0.0217,0.0142,0.0141,0.0085,0.0054,0.0078,-0.0015,0.0022,-0.0139,-0.0138,-0.0184,-0.0252,-0.0261,-0.0192,-0.0274,-0.0273,-0.0172,-0.0051,-0.0042,-0.0023,-0.0207,-0.0204,-0.0203,-0.0004,0,0.0274,0.0279,0.0236,0.0227,0.0225,0.0168,0.0145,0.0111,0.0086,0.011,0.002,0.0025,-0.0122,-0.0102,-0.0147,-0.0151,-0.015,-0.0239,-0.01,-0.0095,-0.0071,-0.0005,-0.0058,0.0113,0.0012,0.0015,0.0016,0,0.0291,0.0301,0.0314,0.031,0.0308,0.0298,0.0314,0.0288,0.0279,0.0279,0.0252,0.0218,0.0188,0.0078,0.0066,0.0031,-0.001,-0.004,-0.0033,-0.002,-0.0056,0.0073,0.0147,-0.0163,0.0042,0.004,0.0038,0,0.0371,0.0349,0.0382,0.037,0.0353,0.0377,0.0374,0.0364,0.0417,0.0433,0.0526,0.0438,0.0507,0.04,0.0319,0.0221,0.0356,0.0219,0.0184,0.0187,0.0172,0.0168,-0.0019,0.0214,0.0213,0.0213,0.0212,0,0.0409,0.0433,0.0442,0.0467,0.0555,0.0495,0.0603,0.0592,0.0649,0.0793,0.066,0.0803,0.0599,0.0635,0.0463,0.0433,0.0484,0.0233,0.0243,0.018,0.0176,-0.0072,-0.0234,0.022,0.0218,0.0217,0.0216,0,0.0494,0.0479,0.0543,0.0574,0.0603,0.0681,0.0781,0.0875,0.0904,0.1106,0.1148,0.116,0.1218,0.1028,0.0945,0.0705,0.0471,0.0576,0.0539,0.0537,0.0118,-0.0037,-0.0093,-0.0195,0.0543,0.0545,0.0546,0,0.0538,0.058,0.0673,0.0751,0.0783,0.089,0.099,0.1018,0.1144,0.1364,0.1508,0.1614,0.1748,0.162,0.1222,0.0972,0.0652,0.0701,0.0436,0.0126,-0.0039,-0.0147,-0.0239,0.0448,0.0448,0.0448,0.0448,0,0.0649,0.0692,0.0767,0.0938,0.1063,0.1193,0.1341,0.1481,0.1586,0.1803,0.2115,0.2254,0.2118,0.1868,0.1461,0.1192,0.0466,0.0695,0.0377,-0.0116,-0.0242,-0.0344,0.031,0.0451,0.045,0.045,0.045,0.045,0.0771,0.0853,0.0974,0.1137,0.1285,0.148,0.1622,0.1832,0.211,0.2467,0.2578,0.2874,0.2355,0.1794,0.1412,0.0518,0.0539,0.0172,0.0029,-0.0036,-0.0218,0.0465,0.0594,0.0594,0.0595,0.0595,0.0596,0,0.0907,0.0995,0.1159,0.1352,0.1533,0.1576,0.1846,0.2027,0.2406,0.2827,0.3141,0.3068,0.2422,0.168,0.0504,-0.0077,-0.0325,-0.041,-0.0648,-0.0698,-0.009,-0.019,-0.0229,-0.0229,-0.0229,-0.0228,-0.0228,-0.0228,0.0997,0.1153,0.1225,0.153,0.1665,0.1911,0.2065,0.2398,0.2724,0.3242,0.3485,0.3639,0.2946,0.0899,-0.0499,-0.0811,-0.1202,-0.125,-0.1399,-0.112,-0.1081,-0.1044,-0.1183,-0.1429,-0.143,-0.1988,-0.1995,-0.1999]}],[{"header":{"parameterUnit":"m.s-1","parameterCategory":2,"la1":30.2991,"la2":30.254,"lo1":-89.0895,"lo2":-89.0444,"dy":0.0017,"dx":0.0017,"nx":28,"ny":28,"refTime":"2024-07-18T21:00:00:Z","depth":"2","parameterNumber":2,"parameterNumberName":"U-component_of_CURRENTS"},"data":[0,0,0,0,0,0,0,0,0,0,0,0,0,0,0,0,0,0,0,0,0,0,0,0,0,0,0,0,0,0,0,0,0,0,0,0,0,0,0,0,0,0,0,0,0,0,0,0,0,0,0,0,0,0,0,0,0,0,0.3076,0.3078,0,0.3171,0.3171,0.3171,0.3157,0.3156,0.3156,0.3155,0.3153,0.3154,0.3154,0,0,0,0,0,0,0,0,0,0,0,0,0,0.2932,0.2933,0.3076,0.3078,0.308,0.3171,0.3171,0.3171,0.3157,0.3156,0.3155,0.3155,0.3153,0.3154,0.3154,0,0,0,0,0,0,0,0,0,0,0,0,0,0.2997,0.2934,0.3075,0.3092,0.3095,0.3171,0.3171,0.3171,0.3157,0.3156,0.3155,0.3154,0.3153,0.3154,0.3154,0.3177,0,0,0.3157,0.3157,0,0,0,0,0,0,0,0,0.2993,0.3001,0.3087,0.3091,0.3095,0.3161,0.312,0.3172,0.3157,0.3122,0.3155,0.3154,0.3155,0.3155,0.3161,0.3177,0.3177,0.3157,0.3157,0.3158,0.3158,0,0,0,0,0,0,0,0.2988,0.2997,0.3102,0.309,0.3095,0.3113,0.3119,0.313,0.3132,0.3125,0.3127,0.3155,0.3154,0.316,0.3161,0.3177,0.3157,0.3158,0.3158,0.3158,0.325,0.3251,0,0,0,0,0,0,0.2998,0.2993,0.3099,0.3106,0.3053,0.3117,0.3123,0.3131,0.3134,0.3138,0.3156,0.3155,0.3159,0.316,0.316,0.3261,0.3158,0.3158,0.3159,0.3248,0.325,0.3252,0,0,0,0,0,0,0.2994,0.3005,0.3096,0.3061,0.3075,0.3121,0.313,0.3134,0.3149,0.3161,0.316,0.3168,0.3159,0.3159,0.3188,0.3258,0.3159,0.3159,0.3245,0.3248,0.3251,0.3415,0,0,0,0,0,0,0.2989,0.3003,0.3015,0.3061,0.3078,0.3133,0.3132,0.3137,0.3173,0.3171,0.3171,0.317,0.3158,0.3187,0.3189,0.3257,0.316,0.3243,0.3247,0.325,0.3407,0.3423,0.3437,0,0,0,0,0,0.2983,0.3014,0.3014,0.3028,0.3091,0.3134,0.3142,0.3165,0.3174,0.3175,0.3194,0.317,0.3211,0.3189,0.3191,0.3261,0.3241,0.3246,0.325,0.34,0.342,0.3436,0,0,0,0,0,0,0.2952,0.3019,0.3019,0.3065,0.3091,0.3136,0.3163,0.3176,0.3193,0.3204,0.3195,0.3195,0.3241,0.3223,0.3199,0.3294,0.3223,0.3227,0.3336,0.3355,0.3369,0.3342,0.3161,0,0,0,0,0,0.2955,0.2994,0.3039,0.3071,0.3091,0.3125,0.3151,0.3169,0.3198,0.3205,0.3216,0.3234,0.3261,0.3283,0.3283,0.3345,0.336,0.3388,0.3403,0.3416,0.3393,0.3535,0.3563,0.3267,0.3267,0.3266,0,0,0.2955,0.2997,0.3019,0.3069,0.3095,0.3127,0.3135,0.3185,0.3217,0.3204,0.3253,0.3275,0.328,0.3346,0.3367,0.3345,0.3506,0.3422,0.3433,0.3402,0.3543,0.3573,0.3599,0.327,0.3269,0.3269,0,0,0.2979,0.3007,0.3044,0.3069,0.3127,0.3149,0.3165,0.3218,0.3243,0.3292,0.3308,0.3374,0.3393,0.3444,0.3463,0.3558,0.3566,0.3564,0.3645,0.3787,0.3813,0.3836,0.3893,0.3921,0.3593,0.3594,0.3594,0,0.2979,0.3017,0.3058,0.3093,0.3147,0.3157,0.3212,0.3225,0.3284,0.3355,0.3312,0.3448,0.344,0.3579,0.3596,0.3596,0.3649,0.3588,0.3812,0.3835,0.3856,0.3909,0.3937,0.3602,0.3601,0.36,0.3599,0,0.3002,0.3048,0.3074,0.3123,0.3186,0.3225,0.3279,0.3355,0.3394,0.3419,0.355,0.3567,0.3663,0.3681,0.3651,0.3824,0.3802,0.3807,0.3776,0.3897,0.3943,0.3969,0.3614,0.3611,0.3609,0.3606,0,0,0.2979,0.3072,0.3083,0.3142,0.3215,0.328,0.3386,0.3498,0.3586,0.363,0.3764,0.3813,0.3843,0.3863,0.389,0.3983,0.4159,0.3955,0.3959,0.4025,0.4437,0.4295,0.4309,0.4238,0.4244,0.4248,0.4411,0,0.2981,0.3058,0.3128,0.3234,0.329,0.3411,0.3477,0.3599,0.369,0.3797,0.3877,0.3951,0.3904,0.3978,0.4073,0.4135,0.4234,0.4109,0.4293,0.4296,0.4171,0.4337,0.3975,0.4079,0.4436,0.444,0.4443,0,0.2987,0.3046,0.3144,0.332,0.3359,0.3417,0.3659,0.3732,0.3889,0.3964,0.4118,0.4143,0.4293,0.421,0.4423,0.436,0.4394,0.4421,0.4431,0.4247,0.4203,0.4014,0.4113,0.4487,0.4483,0.448,0.4477,0,0.2978,0.3095,0.3187,0.323,0.3382,0.3509,0.3603,0.3784,0.3897,0.4089,0.419,0.4352,0.4441,0.4557,0.4605,0.4552,0.4798,0.4754,0.4659,0.4647,0.4337,0.4289,0.4902,0.4901,0.4901,0.4901,0.49,0,0.2991,0.3081,0.3171,0.3228,0.3364,0.3482,0.3673,0.3812,0.3975,0.4087,0.4245,0.4372,0.4535,0.4685,0.4705,0.4769,0.4917,0.4683,0.4705,0.4379,0.4334,0.4668,0.4639,0.4907,0.4905,0.4904,0.4903,0,0.3027,0.3059,0.3194,0.3326,0.3373,0.3491,0.3717,0.3796,0.3975,0.4162,0.423,0.4447,0.463,0.4773,0.4951,0.4888,0.4968,0.4948,0.4505,0.4469,0.4681,0.4658,0.4861,0.4858,0.4855,0.4853,0.4851,0,0.3069,0.31,0.3261,0.3297,0.3366,0.3528,0.3575,0.3785,0.3888,0.4187,0.4231,0.4486,0.4591,0.4806,0.4801,0.4868,0.4966,0.4531,0.4342,0.4689,0.469,0.4671,0.4652,0.4,0.3991,0.3984,0.3979,0,0.3115,0.3147,0.322,0.3271,0.3336,0.3485,0.3595,0.3677,0.3886,0.4,0.4118,0.4226,0.445,0.4356,0.4483,0.4456,0.449,0.4383,0.4957,0.4049,0.3887,0.3884,0.3893,0.3915,0.3922,0.3926,0.393,0.3932,0.3119,0.3152,0.3156,0.3222,0.3314,0.3374,0.3374,0.347,0.3565,0.3645,0.3845,0.3862,0.3982,0.3957,0.3899,0.3875,0.415,0.3956,0.3975,0.4003,0.3857,0.3698,0.366,0.3664,0.3668,0.3672,0.3675,0,0.3067,0.3037,0.3075,0.3113,0.3123,0.3254,0.3302,0.322,0.3195,0.3323,0.3352,0.3114,0.3141,0.3317,0.3175,0.3182,0.3121,0.3065,0.2958,0.3025,0.3084,0.2887,0.2435,0.243,0.2426,0.2423,0,0,0.2994,0.2942,0.2945,0.2885,0.2928,0.2829,0.2816,0.2713,0.2741,0.2652,0.2635,0.2889,0.3143,0.2694,0.2683,0.2538,0.2737,0.2436,0.3437,0.3374,0.3426,0.3618,0.3394,0,0,0,0,0]},{"header":{"parameterUnit":"m.s-1","parameterCategory":2,"la1":30.2991,"la2":30.254,"lo1":-89.0895,"lo2":-89.0444,"dy":0.0017,"dx":0.0017,"nx":28,"ny":28,"refTime":"2024-07-18T21:00:00:Z","depth":"2","parameterNumber":3,"parameterNumberName":"V-component_of_CURRENTS"},"data":[0,0,0,0,0,0,0,0,0,0,0,0,0,0,0,0,0,0,0,0,0,0,0,0,0,0,0,0,0,0,0,0,0,0,0,0,0,0,0,0,0,0,0,0,0,0,0,0,0,0,0,0,0,0,0,0,0,0,0.002,0.002,0,-0.0042,-0.0043,-0.0044,-0.0096,-0.0097,-0.0097,-0.0098,-0.0195,-0.0197,-0.0199,0,0,0,0,0,0,0,0,0,0,0,0,0,0.0028,0.0028,0.002,0.002,0.0019,-0.0042,-0.0043,-0.0044,-0.0096,-0.0097,-0.0097,-0.0098,-0.0194,-0.0197,-0.0199,0,0,0,0,0,0,0,0,0,0,0,0,0,0.0001,0.0028,0.0021,-0.0014,-0.0018,-0.0042,-0.0043,-0.0044,-0.0096,-0.0097,-0.0098,-0.0098,-0.0194,-0.0197,-0.02,-0.0203,0,0,-0.0209,-0.0211,0,0,0,0,0,0,0,0,0.0002,0.0,-0.0008,-0.0012,-0.0016,-0.0062,-0.0076,-0.0099,-0.0096,-0.0067,-0.0098,-0.0099,-0.0153,-0.0159,-0.017,-0.0208,-0.0212,-0.021,-0.0212,-0.0213,-0.0214,0,0,0,0,0,0,0,0.0004,0.0002,-0.0005,-0.0009,-0.0014,-0.005,-0.0054,-0.0081,-0.0106,-0.0069,-0.0073,-0.0079,-0.0155,-0.0166,-0.0172,-0.0214,-0.021,-0.0212,-0.0214,-0.0216,-0.0287,-0.0287,0,0,0,0,0,0,0.0018,0.0005,-0.0003,-0.0007,-0.0008,-0.0049,-0.0053,-0.0047,-0.0105,-0.0114,-0.0078,-0.0081,-0.0161,-0.0169,-0.0176,-0.0193,-0.0213,-0.0216,-0.0218,-0.0287,-0.0287,-0.0287,0,0,0,0,0,0,0.0018,0.0018,-0.0,-0.0003,-0.0008,-0.0047,-0.004,-0.0047,-0.0059,-0.0111,-0.0121,-0.0082,-0.0162,-0.0172,-0.0201,-0.0197,-0.0217,-0.022,-0.0287,-0.0287,-0.0287,-0.0221,0,0,0,0,0,0,0.0019,0.0019,0.0028,-0.0002,-0.0007,-0.0004,-0.0039,-0.0048,-0.0061,-0.0065,-0.0117,-0.0127,-0.0163,-0.0196,-0.0204,-0.0202,-0.0223,-0.0287,-0.0287,-0.0287,-0.0224,-0.0219,-0.0215,0,0,0,0,0,0.002,0.0042,0.0029,0.0028,0.0007,-0.0004,-0.0009,-0.0042,-0.006,-0.0056,-0.0098,-0.0125,-0.0202,-0.0198,-0.0207,-0.0206,-0.0287,-0.0287,-0.0287,-0.0225,-0.022,-0.0215,0,0,0,0,0,0,0.0051,0.0038,0.0023,0.0041,0.0022,-0.0012,-0.0011,-0.0034,-0.0063,-0.0068,-0.0122,-0.0135,-0.0157,-0.0191,-0.0186,-0.0228,-0.025,-0.0252,-0.02,-0.0195,-0.0191,-0.0125,-0.0225,0,0,0,0,0,0.0063,0.0078,0.0052,0.0067,0.006,0.0025,0.0015,-0.0003,-0.0033,-0.0046,-0.0088,-0.0131,-0.0164,-0.0186,-0.0217,-0.0239,-0.0262,-0.0247,-0.0243,-0.0239,-0.0193,-0.0249,-0.0245,-0.0287,-0.0287,-0.0287,0,0,0.0078,0.0075,0.0081,0.0075,0.0057,0.0073,0.0018,0.0016,0.0029,-0.0051,-0.0055,-0.0112,-0.0164,-0.0189,-0.0203,-0.0219,-0.0242,-0.0239,-0.0235,-0.019,-0.0248,-0.0244,-0.024,-0.0287,-0.0287,-0.0287,0,0,0.0125,0.0115,0.0141,0.0136,0.0122,0.0109,0.0113,0.0079,0.0061,0.0047,-0.0009,-0.0053,-0.0111,-0.0145,-0.0169,-0.0158,-0.0213,-0.019,-0.0122,-0.0179,-0.0175,-0.0172,-0.0204,-0.0204,-0.0196,-0.0196,-0.0196,0,0.0143,0.0184,0.0146,0.0172,0.0188,0.0134,0.0175,0.0151,0.0111,0.0094,0.0059,-0.0026,-0.0076,-0.01,-0.0101,-0.0143,-0.0185,-0.0138,-0.0171,-0.0169,-0.0167,-0.02,-0.0201,-0.0193,-0.0193,-0.0194,-0.0194,0,0.0207,0.0244,0.0261,0.0288,0.029,0.032,0.0289,0.027,0.0236,0.0204,0.0163,0.0086,0.0032,-0.0004,-0.0046,-0.0064,-0.0101,-0.0155,-0.0177,-0.0158,-0.0196,-0.0198,-0.0188,-0.019,-0.0191,-0.0191,0,0,0.0251,0.0302,0.0311,0.036,0.0364,0.0385,0.0387,0.0382,0.0385,0.0316,0.0315,0.0239,0.0172,0.0143,0.0062,0.0019,-0.0015,-0.0056,-0.0061,-0.0073,-0.0132,-0.0189,-0.0197,-0.0095,-0.0095,-0.0095,-0.0167,0,0.0323,0.0418,0.0418,0.0521,0.0573,0.0533,0.0558,0.0533,0.0474,0.0447,0.0353,0.0321,0.0232,0.0196,0.0138,0.0031,-0.0017,0.0012,-0.0158,-0.0161,-0.0204,-0.02,-0.0139,-0.0201,-0.0169,-0.0169,-0.017,0,0.0388,0.0454,0.0563,0.0665,0.0684,0.073,0.0745,0.0757,0.0679,0.0629,0.0546,0.0452,0.0385,0.03,0.0147,0.0158,0.0036,-0.005,-0.0058,-0.0121,-0.0221,-0.0215,-0.0206,-0.0174,-0.0174,-0.0173,-0.0173,0,0.0454,0.0564,0.0669,0.07,0.0783,0.0817,0.0855,0.0804,0.0814,0.0731,0.0711,0.0587,0.0541,0.0378,0.0183,0.0151,0.0019,-0.0062,-0.022,-0.0225,-0.0203,-0.0207,-0.0159,-0.0159,-0.0159,-0.0159,-0.0159,0,0.0542,0.063,0.0714,0.0779,0.0897,0.0919,0.0986,0.0977,0.0961,0.1005,0.082,0.0816,0.0556,0.0424,0.0234,0.0016,0.0044,-0.0179,-0.0244,-0.0182,-0.0183,-0.0182,-0.0184,-0.0162,-0.0161,-0.0161,-0.016,0,0.0592,0.065,0.0775,0.0892,0.0931,0.1007,0.1091,0.1137,0.1107,0.115,0.1138,0.0988,0.0819,0.0554,0.0301,0.0093,-0.0115,-0.0203,-0.01,-0.0153,-0.0335,-0.0333,-0.0391,-0.0394,-0.0396,-0.0398,-0.0399,0,0.0637,0.0698,0.0843,0.0909,0.0968,0.1066,0.1147,0.1192,0.1248,0.1274,0.133,0.1167,0.108,0.067,0.0287,-0.0065,-0.0118,-0.0269,-0.0325,-0.0299,-0.0357,-0.0351,-0.0346,-0.0271,-0.0271,-0.0272,-0.0272,0,0.0694,0.0725,0.0821,0.0966,0.1079,0.1201,0.1331,0.1407,0.1492,0.1549,0.1626,0.1567,0.1165,0.0799,0.0274,0.0036,-0.0217,-0.0291,-0.028,-0.0232,-0.0195,-0.025,-0.0246,-0.0274,-0.0274,-0.0274,-0.0274,-0.0273,0.0714,0.0765,0.0878,0.1027,0.1151,0.1339,0.1485,0.1621,0.1779,0.1905,0.1842,0.176,0.1323,0.0636,0.0228,-0.0229,-0.0233,-0.0402,-0.0396,-0.0392,-0.0376,-0.0346,-0.0448,-0.0449,-0.0449,-0.045,-0.045,0,0.0721,0.0798,0.0933,0.1135,0.1316,0.1372,0.1616,0.1771,0.1998,0.205,0.2086,0.1653,0.123,0.0739,0.0075,-0.0335,-0.0343,-0.0467,-0.0375,-0.0369,-0.0366,-0.0345,-0.0411,-0.0413,-0.0414,-0.0414,0,0,0.0722,0.084,0.093,0.1239,0.1393,0.167,0.1831,0.2021,0.2115,0.2173,0.2093,0.1923,0.1346,0.086,0.033,-0.0028,-0.0105,-0.0104,-0.0091,0.0089,0.0098,-0.0286,-0.0244,0,0,0,0,0]}],[{"header":{"parameterUnit":"m.s-1","parameterCategory":2,"la1":30.2991,"la2":30.254,"lo1":-89.0895,"lo2":-89.0444,"dy":0.0017,"dx":0.0017,"nx":28,"ny":28,"refTime":"2024-07-18T21:00:00:Z","depth":"4","parameterNumber":2,"parameterNumberName":"U-component_of_CURRENTS"},"data":[0,0,0,0,0,0,0,0,0,0,0,0,0,0,0,0,0,0,0,0,0,0,0,0,0,0,0,0,0,0,0,0,0,0,0,0,0,0,0,0,0,0,0,0,0,0,0,0,0,0,0,0,0,0,0,0,0,0,0.1741,0.1741,0,0.1807,0.1808,0.1809,0.1885,0.1885,0.1886,0.1887,0.1983,0.1984,0.1986,0,0,0,0,0,0,0,0,0,0,0,0,0,0.167,0.1671,0.1741,0.1742,0.1742,0.1807,0.1808,0.1809,0.1884,0.1886,0.1887,0.1888,0.1982,0.1984,0.1986,0,0,0,0,0,0,0,0,0,0,0,0,0,0.1717,0.1672,0.1741,0.1786,0.1791,0.1807,0.1808,0.1809,0.1884,0.1886,0.1887,0.1888,0.1981,0.1984,0.1986,0.1973,0,0,0.1994,0.1995,0,0,0,0,0,0,0,0,0.1714,0.172,0.1779,0.1783,0.1788,0.1837,0.1818,0.1865,0.1884,0.1851,0.1887,0.1889,0.1934,0.1941,0.1952,0.1977,0.1982,0.1994,0.1996,0.1997,0.1997,0,0,0,0,0,0,0,0.1711,0.1717,0.1769,0.1779,0.1785,0.18,0.1808,0.1827,0.1886,0.1854,0.1859,0.1863,0.1938,0.195,0.1955,0.1983,0.1994,0.1996,0.1998,0.1999,0.211,0.2111,0,0,0,0,0,0,0.1698,0.1714,0.1767,0.1771,0.1752,0.18,0.1809,0.1822,0.1885,0.1895,0.1861,0.1866,0.1945,0.1952,0.1959,0.2033,0.1997,0.1999,0.2,0.2108,0.211,0.2112,0,0,0,0,0,0,0.1696,0.1702,0.1764,0.1742,0.1751,0.1799,0.1813,0.1822,0.1876,0.189,0.1902,0.191,0.1946,0.1955,0.2008,0.2034,0.2,0.2002,0.2107,0.2109,0.2111,0.2125,0,0,0,0,0,0,0.1694,0.1701,0.1727,0.1741,0.1751,0.1804,0.1811,0.1822,0.1872,0.188,0.1934,0.1942,0.1948,0.2004,0.2011,0.2036,0.2004,0.2105,0.2108,0.211,0.2122,0.2127,0.2131,0,0,0,0,0,0.1691,0.17,0.1728,0.1736,0.1779,0.1805,0.1814,0.1853,0.1874,0.1906,0.1938,0.1943,0.2027,0.2007,0.2014,0.2041,0.2103,0.2107,0.211,0.212,0.2126,0.2131,0,0,0,0,0,0,0.1673,0.1709,0.174,0.176,0.1801,0.1818,0.1837,0.1873,0.1924,0.1938,0.1958,0.1968,0.2024,0.2034,0.2012,0.2084,0.2067,0.2072,0.2073,0.2079,0.2083,0.2104,0.2006,0,0,0,0,0,0.1683,0.1711,0.1746,0.1769,0.1781,0.1822,0.1845,0.1881,0.1913,0.194,0.1974,0.2009,0.2035,0.206,0.2085,0.2122,0.216,0.2147,0.2151,0.2155,0.2178,0.2242,0.2255,0.2122,0.2122,0.2122,0,0,0.1683,0.1705,0.1725,0.177,0.1793,0.1806,0.184,0.1882,0.1915,0.1938,0.1996,0.2028,0.2049,0.2091,0.2117,0.2108,0.2216,0.2159,0.2161,0.2184,0.2247,0.226,0.2272,0.2125,0.2124,0.2124,0,0,0.1668,0.1714,0.1726,0.1756,0.1804,0.1823,0.1845,0.1894,0.1945,0.2005,0.2023,0.2077,0.2123,0.2142,0.2153,0.2201,0.2236,0.2214,0.2253,0.2315,0.2326,0.2337,0.2413,0.243,0.2216,0.2216,0.2216,0,0.1674,0.1686,0.1735,0.1744,0.1762,0.1829,0.184,0.189,0.1963,0.2015,0.2032,0.2138,0.2144,0.2201,0.2211,0.221,0.2263,0.2225,0.232,0.2331,0.2342,0.2417,0.2436,0.2217,0.2217,0.2217,0.2217,0,0.1654,0.1677,0.1676,0.1711,0.1746,0.1767,0.183,0.1898,0.1966,0.2026,0.214,0.2176,0.2253,0.225,0.224,0.2321,0.2341,0.2315,0.2304,0.2356,0.2432,0.2452,0.2218,0.2218,0.2218,0.2217,0,0,0.1629,0.1659,0.1665,0.1687,0.1735,0.1767,0.1822,0.1905,0.1992,0.2082,0.2193,0.2235,0.2312,0.2332,0.2351,0.2391,0.249,0.239,0.2393,0.2462,0.2659,0.2465,0.2468,0.2488,0.2491,0.2493,0.2685,0,0.1602,0.1609,0.1633,0.1659,0.1667,0.1746,0.1797,0.19,0.2015,0.2143,0.2231,0.2345,0.2328,0.24,0.2437,0.2492,0.2542,0.2443,0.2603,0.2608,0.2425,0.2482,0.2503,0.27,0.2704,0.2708,0.271,0,0.1567,0.1585,0.1597,0.1659,0.1673,0.1715,0.1857,0.1924,0.2102,0.2212,0.2356,0.2444,0.2559,0.2525,0.2674,0.2622,0.2649,0.2671,0.2679,0.2508,0.2448,0.2636,0.2745,0.2742,0.274,0.2737,0.2735,0,0.1529,0.156,0.1578,0.1595,0.1672,0.1733,0.1799,0.1963,0.2051,0.2298,0.2417,0.257,0.2685,0.2752,0.2809,0.277,0.295,0.2898,0.2754,0.2743,0.2855,0.2842,0.2986,0.2985,0.2985,0.2984,0.2984,0,0.1468,0.1494,0.1582,0.1597,0.1658,0.1742,0.1862,0.1976,0.2155,0.227,0.2474,0.259,0.2747,0.2856,0.2878,0.2888,0.3021,0.2784,0.2777,0.2858,0.2843,0.287,0.2854,0.2992,0.299,0.2989,0.2987,0,0.1404,0.1452,0.1484,0.1588,0.1636,0.1695,0.1848,0.1937,0.2158,0.2324,0.2409,0.2643,0.2804,0.2926,0.3049,0.2966,0.2996,0.2953,0.3077,0.307,0.274,0.2723,0.2835,0.283,0.2825,0.2822,0.2818,0,0.1342,0.1364,0.1473,0.1504,0.1556,0.1669,0.1733,0.1919,0.201,0.2319,0.2367,0.2612,0.2749,0.2817,0.2927,0.3005,0.294,0.2958,0.2796,0.2742,0.2725,0.2715,0.2704,0.2811,0.281,0.2809,0.2808,0,0.1238,0.131,0.1349,0.1415,0.1482,0.1548,0.1667,0.1713,0.1939,0.2151,0.2302,0.242,0.259,0.2694,0.2784,0.2806,0.2951,0.2909,0.2917,0.2765,0.2714,0.2699,0.2694,0.2792,0.2794,0.2796,0.2797,0,0.1168,0.1166,0.1238,0.1291,0.1367,0.1402,0.1486,0.1595,0.1698,0.2027,0.2055,0.2339,0.254,0.2591,0.2659,0.2694,0.2636,0.2536,0.2562,0.2581,0.2401,0.2293,0.2253,0,0,0,0,0,0.106,0.1059,0.1103,0.1131,0.1212,0.1268,0.1417,0.1515,0.1731,0.1775,0.1915,0.2066,0.2222,0.2346,0.2331,0.2527,0.2631,0.2496,0.2523,0.2705,0.2724,0.2531,0,0,0,0,0,0,0.0994,0.1015,0.1045,0.1005,0.1018,0.1078,0.1179,0.1334,0.1371,0.162,0.1714,0.1913,0.2087,0.2206,0.2281,0.2319,0.2288,0.2651,0.2645,0.2695,0.2712,0.2726,0.2535,0,0,0,0,0]},{"header":{"parameterUnit":"m.s-1","parameterCategory":2,"la1":30.2991,"la2":30.254,"lo1":-89.0895,"lo2":-89.0444,"dy":0.0017,"dx":0.0017,"nx":28,"ny":28,"refTime":"2024-07-18T21:00:00:Z","depth":"4","parameterNumber":3,"parameterNumberName":"V-component_of_CURRENTS"},"data":[0,0,0,0,0,0,0,0,0,0,0,0,0,0,0,0,0,0,0,0,0,0,0,0,0,0,0,0,0,0,0,0,0,0,0,0,0,0,0,0,0,0,0,0,0,0,0,0,0,0,0,0,0,0,0,0,0,0,0.008,0.008,0,0.0051,0.005,0.005,0.0009,0.0009,0.0008,0.0008,-0.0054,-0.0055,-0.0057,0,0,0,0,0,0,0,0,0,0,0,0,0,0.0065,0.0066,0.008,0.008,0.0079,0.0051,0.005,0.005,0.001,0.0009,0.0008,0.0008,-0.0054,-0.0055,-0.0057,0,0,0,0,0,0,0,0,0,0,0,0,0,0.0056,0.0066,0.008,0.0057,0.0055,0.0051,0.005,0.0049,0.001,0.0009,0.0008,0.0007,-0.0054,-0.0055,-0.0057,-0.0052,0,0,-0.0062,-0.0063,0,0,0,0,0,0,0,0,0.0057,0.0056,0.0061,0.0059,0.0056,0.0034,0.0022,0.0015,0.001,0.0025,0.0008,0.0007,-0.0026,-0.003,-0.0036,-0.0055,-0.0057,-0.0062,-0.0063,-0.0064,-0.0065,0,0,0,0,0,0,0,0.0057,0.0057,0.0067,0.0061,0.0058,0.0036,0.0034,0.0021,0.0002,0.0024,0.0021,0.0021,-0.0028,-0.0034,-0.0038,-0.0058,-0.0062,-0.0064,-0.0065,-0.0066,-0.0087,-0.0087,0,0,0,0,0,0,0.0067,0.0058,0.0067,0.0066,0.0056,0.0038,0.0035,0.0041,0.0003,-0.0003,0.0022,0.0019,-0.0031,-0.0035,-0.004,-0.0014,-0.0064,-0.0066,-0.0067,-0.0088,-0.0087,-0.0087,0,0,0,0,0,0,0.0067,0.0069,0.0069,0.0062,0.0061,0.0039,0.0045,0.0041,0.0034,0.0002,-0.0005,0.002,-0.0031,-0.0037,-0.0046,-0.0018,-0.0067,-0.0068,-0.0088,-0.0088,-0.0087,0.0024,0,0,0,0,0,0,0.0067,0.0069,0.0077,0.0063,0.0062,0.0073,0.0046,0.0041,0.0036,0.0033,-0.0001,-0.0008,-0.0032,-0.0043,-0.0048,-0.0021,-0.007,-0.0089,-0.0088,-0.0087,0.002,0.0028,0.0036,0,0,0,0,0,0.0067,0.0087,0.0078,0.0079,0.0073,0.0074,0.0072,0.0051,0.0037,0.0041,0.0019,-0.0007,-0.0041,-0.0044,-0.0049,-0.0022,-0.0089,-0.0088,-0.0087,0.0016,0.0026,0.0035,0,0,0,0,0,0,0.0086,0.0085,0.0074,0.0093,0.0085,0.0068,0.0073,0.0058,0.0043,0.0043,0.0004,-0.0004,-0.0002,-0.0032,-0.0034,-0.003,-0.0071,-0.0071,0.0009,0.0019,0.0026,0.0034,-0.0071,0,0,0,0,0,0.0095,0.0111,0.0098,0.0115,0.0112,0.0093,0.009,0.0081,0.0067,0.006,0.0033,0.0009,-0.0002,-0.0007,-0.0028,-0.002,-0.0079,-0.0011,-0.0002,0.0005,0.0005,-0.0061,-0.0059,-0.0083,-0.0083,-0.0083,0,0,0.0106,0.011,0.0117,0.012,0.0112,0.0133,0.0089,0.0097,0.012,0.0056,0.0071,0.0035,0.0004,0.0013,0.0011,-0.0007,-0.002,0.0006,0.0013,0.0009,-0.006,-0.0057,-0.0055,-0.0083,-0.0083,-0.0083,0,0,0.0148,0.014,0.0169,0.0172,0.0173,0.0165,0.017,0.0155,0.015,0.0159,0.0121,0.0097,0.0082,0.0063,0.0054,0.009,0.0022,0.0086,0.014,0.0078,0.0079,0.008,0.0008,0.0002,0.0094,0.0094,0.0095,0,0.0162,0.0198,0.0176,0.0209,0.0225,0.0185,0.0225,0.022,0.0205,0.0203,0.0178,0.0137,0.0107,0.0117,0.013,0.0111,0.0057,0.0114,0.0089,0.0089,0.0087,0.0013,0.0005,0.01,0.0099,0.0099,0.0098,0,0.0226,0.0256,0.0275,0.0306,0.0319,0.0345,0.0341,0.0345,0.0328,0.0308,0.0298,0.0247,0.0217,0.021,0.0187,0.0174,0.0132,0.0106,0.007,0.0097,0.0017,0.0006,0.0108,0.0106,0.0104,0.0103,0,0,0.0255,0.0309,0.0318,0.0355,0.0376,0.0398,0.0436,0.0449,0.0468,0.0428,0.0434,0.0403,0.0343,0.0327,0.0283,0.0233,0.0179,0.0176,0.017,0.0113,0.003,0.0024,0.001,0.015,0.0149,0.0148,-0.0022,0,0.0311,0.0395,0.041,0.0495,0.0534,0.053,0.0568,0.0574,0.0557,0.0545,0.0477,0.0461,0.04,0.0386,0.0326,0.0211,0.0155,0.0227,0.0004,-0.0003,-0.0005,-0.0001,0.0144,-0.0031,-0.0033,-0.0035,-0.0037,0,0.0371,0.042,0.0513,0.0591,0.0608,0.0657,0.0706,0.0739,0.071,0.069,0.0643,0.0569,0.0494,0.0437,0.0248,0.0295,0.0174,0.008,0.007,0.0017,-0.0029,-0.0067,-0.0058,-0.0057,-0.0055,-0.0054,-0.0052,0,0.0406,0.0497,0.0577,0.0605,0.0678,0.0729,0.077,0.0778,0.0808,0.0778,0.0766,0.0653,0.0591,0.043,0.0224,0.0233,-0.0003,-0.0019,-0.014,-0.0143,-0.0136,-0.0136,-0.0152,-0.0151,-0.0151,-0.015,-0.015,0,0.0463,0.0529,0.0604,0.0653,0.075,0.0786,0.0878,0.0895,0.0908,0.0933,0.084,0.0805,0.0584,0.0419,0.0237,0.0006,-0.0003,-0.0137,-0.0185,-0.0087,-0.0078,-0.0145,-0.0142,-0.0157,-0.0155,-0.0154,-0.0153,0,0.0496,0.0543,0.0642,0.0737,0.0775,0.085,0.0963,0.1013,0.1021,0.1048,0.1039,0.0896,0.0681,0.0447,0.0164,0.0027,-0.0191,-0.0268,-0.0157,-0.0195,-0.0295,-0.0284,-0.0417,-0.0419,-0.042,-0.0421,-0.0422,0,0.0529,0.0576,0.0701,0.0767,0.0823,0.0935,0.1008,0.1066,0.1113,0.1095,0.1093,0.091,0.0785,0.0378,0.0131,-0.0218,-0.0257,-0.0364,-0.0315,-0.0287,-0.0321,-0.0308,-0.0296,-0.0424,-0.0425,-0.0425,-0.0425,0,0.0575,0.0612,0.0692,0.0823,0.0925,0.1036,0.1142,0.1177,0.1227,0.1224,0.113,0.0932,0.0684,0.0371,0.0099,-0.0147,-0.0289,-0.0379,-0.0377,-0.0332,-0.0298,-0.0327,-0.0314,-0.043,-0.0429,-0.0429,-0.0429,0,0.0612,0.0662,0.076,0.0878,0.1004,0.1109,0.1163,0.1209,0.1251,0.1223,0.1174,0.0929,0.0776,0.0405,0.0149,-0.009,-0.0142,-0.0194,-0.0203,-0.0201,-0.008,-0.0001,-0.0086,0,0,0,0,0,0.0643,0.0697,0.0807,0.0939,0.1061,0.1136,0.1239,0.1274,0.1302,0.1249,0.1222,0.0995,0.0623,0.0447,0.0205,0.0116,-0.0189,-0.0174,-0.0255,-0.0456,-0.045,-0.0345,0,0,0,0,0,0,0.0661,0.076,0.0807,0.0967,0.106,0.1198,0.1267,0.1283,0.1249,0.1232,0.1024,0.0945,0.0564,0.0755,0.02,0.0127,0.0047,-0.035,-0.0354,-0.0459,-0.0454,-0.045,-0.0339,0,0,0,0,0]}]]